* Astronomy

Members Login
Username 
 
Password 
    Remember Me  
Post Info TOPIC: Asteroid 2010 OP1


L

Posts: 131433
Date:
Asteroid 2010 OP1
Permalink  
 


Orbital elements:
2010 OP1 Earth MOID = 0.2462 AU
Epoch 2010 July 23.0 TT = JDT 2455400.5 MPC
M 346.58028 (2000.0) P Q
n 0.19181800 Peri. 254.64579 +0.88604867 -0.38408524
a 2.9776694 Node 127.22806 +0.43763572 +0.87773865
e 0.6486081 Incl. 19.02889 -0.15294684 +0.28644964
P 5.14 H 18.9 G 0.15 U 8

MPEC 2010 - O24


__________________
Page 1 of 1  sorted by
 
Quick Reply

Please log in to post quick replies.



Create your own FREE Forum
Report Abuse
Powered by ActiveBoard